Location: Unspecified
(40.7945°N, 111.1337°W)
Time: 11:12:51
(UTC-06:00)

Vanguard 1 - Pass Details

Date: 17 June 2019
Orbit: 655 x 3829 km, 34.2° (Epoch: 16 August)

Event Time Altitude Azimuth Distance (km) Brightness Sun altitude
Exits shadow 02:29:24 18° 159° (SSE) 5,082 13.2 -24.1°
Maximum altitude 02:32:17 19° 147° (SSE) 4,773 13.2 -24.0°
Drops below altitude 10° 02:40:43 10° 109° (ESE) 4,643 13.5 -23.5°
Sets 02:45:07 0° 92° (E) 5,130 14.0 -23.2°
